When you browse on this site, cookies collect data to enhance your experience and personalize the content and advertising you see.
Visit our Privacy Policy to learn more. By continuing to use the site, you agree to this use of cookies and data.
EN

Hourly Weather Nadrowo

Today, 27 September, Sunday

Time Temperature Precipitation Wind Pressure Humidity
00:00 +17°C° 0.2 mm 4 mps 734 mmHg 88%
01:00 +18°C° 0 mm 4 mps 735 mmHg 87%
02:00 +17°C° 0.1 mm 4 mps 734 mmHg 85%
03:00 +16°C° 0.1 mm 5 mps 734 mmHg 82%
04:00 +16°C° 0.1 mm 5 mps 734 mmHg 80%
05:00 +17°C° 0.3 mm 6 mps 734 mmHg 79%
06:00 +17°C° 0.3 mm 6 mps 734 mmHg 78%
07:00 +17°C° 0 mm 6 mps 735 mmHg 74%
08:00 +18°C° 0 mm 7 mps 735 mmHg 72%
09:00 +20°C° 0 mm 7 mps 735 mmHg 70%
10:00 +20°C° 0 mm 8 mps 735 mmHg 68%
11:00 +18°C° 0.3 mm 7 mps 736 mmHg 70%
12:00 +17°C° 0.3 mm 6 mps 736 mmHg 73%
13:00 +18°C° 0 mm 4 mps 737 mmHg 72%
14:00 +17°C° 1 mm 4 mps 737 mmHg 79%
15:00 +14°C° 1 mm 4 mps 738 mmHg 85%
16:00 +13°C° 1 mm 4 mps 738 mmHg 91%
17:00 +12°C° 0.6 mm 4 mps 739 mmHg 91%
18:00 +11°C° 0.6 mm 4 mps 740 mmHg 91%
19:00 +10°C° 0.6 mm 4 mps 741 mmHg 90%
20:00 +10°C° 0 mm 4 mps 741 mmHg 89%
21:00 +10°C° 0 mm 4 mps 742 mmHg 88%
22:00 +10°C° 0 mm 4 mps 743 mmHg 87%
23:00 +8°C° 0 mm 4 mps 743 mmHg 89%

Tomorrow, 28 September, Monday

Time Temperature Precipitation Wind Pressure Humidity
00:00 +9°C° 0 mm 3 mps 744 mmHg 90%
01:00 +9°C° 0 mm 2 mps 744 mmHg 92%
02:00 +8°C° 0 mm 2 mps 744 mmHg 92%
03:00 +8°C° 0 mm 2 mps 745 mmHg 92%
04:00 +8°C° 0 mm 3 mps 745 mmHg 92%
05:00 +8°C° 0 mm 3 mps 745 mmHg 89%
06:00 +8°C° 0 mm 3 mps 746 mmHg 87%
07:00 +9°C° 0 mm 3 mps 746 mmHg 85%
08:00 +12°C° 0 mm 2 mps 747 mmHg 77%
09:00 +13°C° 0 mm 2 mps 747 mmHg 70%
10:00 +15°C° 0 mm 2 mps 747 mmHg 62%
11:00 +16°C° 0 mm 2 mps 747 mmHg 58%
12:00 +17°C° 0 mm 2 mps 747 mmHg 54%
13:00 +18°C° 0 mm 2 mps 747 mmHg 50%
14:00 +17°C° 0 mm 2 mps 747 mmHg 53%
15:00 +17°C° 0 mm 2 mps 747 mmHg 56%
16:00 +17°C° 0 mm 2 mps 747 mmHg 59%
17:00 +15°C° 0 mm 2 mps 747 mmHg 64%
18:00 +14°C° 0 mm 2 mps 747 mmHg 68%
19:00 +12°C° 0 mm 2 mps 747 mmHg 73%
20:00 +12°C° 0 mm 2 mps 747 mmHg 74%
21:00 +12°C° 0 mm 2 mps 747 mmHg 76%
22:00 +10°C° 0 mm 2 mps 747 mmHg 77%
23:00 +10°C° 0 mm 2 mps 747 mmHg 77%

Day after tomorrow, 29 September, Tuesday

Time Temperature Precipitation Wind Pressure Humidity
00:00 +10°C° 0 mm 2 mps 747 mmHg 78%
01:00 +10°C° 0 mm 2 mps 747 mmHg 78%
02:00 +10°C° 0 mm 2 mps 746 mmHg 79%
03:00 +10°C° 0 mm 2 mps 746 mmHg 80%
04:00 +10°C° 0 mm 2 mps 746 mmHg 81%
05:00 +10°C° 0 mm 3 mps 746 mmHg 80%
06:00 +10°C° 0 mm 3 mps 746 mmHg 80%
07:00 +11°C° 0 mm 3 mps 746 mmHg 79%
08:00 +12°C° 0 mm 3 mps 746 mmHg 74%
09:00 +14°C° 0 mm 4 mps 746 mmHg 68%
10:00 +17°C° 0 mm 4 mps 746 mmHg 63%
11:00 +18°C° 0 mm 4 mps 746 mmHg 61%
12:00 +18°C° 0 mm 4 mps 746 mmHg 59%
13:00 +19°C° 0 mm 4 mps 746 mmHg 56%
14:00 +19°C° 0 mm 4 mps 746 mmHg 59%
15:00 +19°C° 0 mm 3 mps 745 mmHg 62%
16:00 +19°C° 0 mm 3 mps 745 mmHg 64%
17:00 +17°C° 0 mm 3 mps 745 mmHg 69%
18:00 +16°C° 0 mm 3 mps 746 mmHg 74%
19:00 +14°C° 0 mm 3 mps 746 mmHg 79%
20:00 +14°C° 0 mm 2 mps 746 mmHg 78%
21:00 +14°C° 0 mm 2 mps 746 mmHg 77%
22:00 +14°C° 0 mm 2 mps 746 mmHg 76%
23:00 +14°C° 0 mm 2 mps 746 mmHg 78%

30 September, Wednesday

Time Temperature Precipitation Wind Pressure Humidity
00:00 +13°C° 0 mm 2 mps 746 mmHg 79%
01:00 +13°C° 0 mm 2 mps 746 mmHg 81%
02:00 +13°C° 0 mm 2 mps 746 mmHg 83%
03:00 +12°C° 0 mm 2 mps 746 mmHg 84%
04:00 +12°C° 0 mm 2 mps 745 mmHg 86%
05:00 +11°C° 0 mm 3 mps 745 mmHg 83%
06:00 +11°C° 0 mm 3 mps 745 mmHg 80%
07:00 +12°C° 0 mm 3 mps 745 mmHg 78%
08:00 +13°C° 0 mm 4 mps 745 mmHg 71%
09:00 +14°C° 0 mm 4 mps 745 mmHg 65%
10:00 +17°C° 0 mm 4 mps 745 mmHg 59%
11:00 +17°C° 0 mm 5 mps 745 mmHg 58%
12:00 +17°C° 0 mm 5 mps 744 mmHg 58%
13:00 +19°C° 0 mm 5 mps 744 mmHg 58%
14:00 +19°C° 0 mm 5 mps 744 mmHg 61%
15:00 +17°C° 0 mm 5 mps 744 mmHg 63%
16:00 +17°C° 0 mm 5 mps 744 mmHg 65%
17:00 +17°C° 0 mm 4 mps 744 mmHg 70%
18:00 +15°C° 0 mm 4 mps 744 mmHg 74%
19:00 +13°C° 0 mm 3 mps 744 mmHg 79%
20:00 +13°C° 0 mm 3 mps 744 mmHg 82%
21:00 +13°C° 0 mm 3 mps 743 mmHg 85%
22:00 +12°C° 0 mm 3 mps 743 mmHg 89%
23:00 +12°C° 0 mm 3 mps 743 mmHg 90%

1 October, Thursday

Time Temperature Precipitation Wind Pressure Humidity
00:00 +13°C° 0 mm 2 mps 743 mmHg 91%
01:00 +12°C° 0 mm 2 mps 743 mmHg 92%
02:00 +12°C° 0 mm 2 mps 743 mmHg 92%
03:00 +12°C° 0 mm 2 mps 742 mmHg 92%
04:00 +10°C° 0 mm 2 mps 742 mmHg 92%
05:00 +10°C° 0 mm 2 mps 742 mmHg 89%
06:00 +10°C° 0 mm 2 mps 742 mmHg 85%
07:00 +12°C° 0 mm 2 mps 742 mmHg 82%
08:00 +12°C° 0 mm 3 mps 742 mmHg 74%
09:00 +14°C° 0 mm 3 mps 742 mmHg 66%
10:00 +16°C° 0 mm 3 mps 741 mmHg 58%
11:00 +17°C° 0 mm 3 mps 741 mmHg 58%
12:00 +18°C° 0 mm 3 mps 741 mmHg 57%
13:00 +18°C° 0 mm 3 mps 741 mmHg 57%
14:00 +18°C° 0 mm 3 mps 741 mmHg 62%
15:00 +17°C° 0 mm 4 mps 741 mmHg 66%
16:00 +15°C° 0 mm 4 mps 740 mmHg 71%
17:00 +14°C° 0 mm 3 mps 740 mmHg 76%
18:00 +13°C° 0 mm 3 mps 740 mmHg 81%
19:00 +12°C° 0 mm 3 mps 740 mmHg 86%
20:00 +12°C° 0 mm 3 mps 740 mmHg 87%
21:00 +11°C° 0 mm 3 mps 740 mmHg 89%
22:00 +11°C° 0 mm 3 mps 740 mmHg 91%
23:00 +11°C° 0 mm 3 mps 740 mmHg 93%

2 October, Friday

Time Temperature Precipitation Wind Pressure Humidity
00:00 +10°C° 0 mm 3 mps 740 mmHg 95%
01:00 +10°C° 0 mm 3 mps 740 mmHg 97%
02:00 +10°C° 0 mm 3 mps 740 mmHg 96%
03:00 +11°C° 0 mm 3 mps 740 mmHg 96%
04:00 +11°C° 0 mm 3 mps 740 mmHg 95%
05:00 +11°C° 0 mm 4 mps 739 mmHg 94%
06:00 +11°C° 0 mm 4 mps 739 mmHg 92%
07:00 +11°C° 0 mm 4 mps 739 mmHg 91%
08:00 +12°C° 0 mm 4 mps 739 mmHg 87%
09:00 +13°C° 0 mm 4 mps 739 mmHg 83%
10:00 +14°C° 0 mm 4 mps 739 mmHg 79%
11:00 +14°C° 0 mm 4 mps 739 mmHg 77%
12:00 +15°C° 0 mm 4 mps 739 mmHg 74%
13:00 +15°C° 0 mm 4 mps 739 mmHg 71%
14:00 +15°C° 0.1 mm 4 mps 739 mmHg 73%
15:00 +16°C° 0.1 mm 3 mps 739 mmHg 75%
16:00 +14°C° 0.1 mm 3 mps 739 mmHg 77%
17:00 +14°C° 0.1 mm 3 mps 739 mmHg 82%
18:00 +13°C° 0.1 mm 3 mps 739 mmHg 86%
19:00 +13°C° 0.1 mm 2 mps 739 mmHg 91%
20:00 +12°C° 0.1 mm 3 mps 739 mmHg 91%
21:00 +12°C° 0.1 mm 3 mps 739 mmHg 91%
22:00 +12°C° 0.1 mm 3 mps 739 mmHg 92%
23:00 +11°C° 0 mm 3 mps 739 mmHg 93%
Show more